[[{"header":{"parameterUnit":"m.s-1","parameterCategory":1,"la1":30.2991,"la2":30.254,"lo1":-89.0895,"lo2":-89.0444,"dy":0.0017,"dx":0.0017,"nx":28,"ny":28,"refTime":"2024-03-19T09:00:00:Z","depth":0,"parameterNumber":2,"parameterNumberName":"U-component_of_WINDS"},"data":[0,0,0,0,0,0,0,0,0,0,0,0,0,0,0,0,0,0,0,0,0,0,0,0,0,0,0,0,0,0,0,0,0,0,0,0,0,0,0,0,0,0,0,0,0,0,0,0,0,0,0,0,0,0,0,0,0,0,0.8195,0.8196,0,0.8263,0.8264,0.8265,0.8315,0.8315,0.8315,0.8316,0.8383,0.8385,0.8386,0,0,0,0,0,0,0,0,0,0,0,0,0,0.8106,0.8107,0.8195,0.8196,0.8196,0.8263,0.8264,0.8265,0.8315,0.8315,0.8316,0.8316,0.8383,0.8384,0.8386,0,0,0,0,0,0,0,0,0,0,0,0,0,0.8156,0.8107,0.8195,0.8229,0.8233,0.8263,0.8264,0.8265,0.8314,0.8315,0.8316,0.8316,0.8382,0.8384,0.8386,0.8387,0,0,0.8393,0.8394,0,0,0,0,0,0,0,0,0.8153,0.8159,0.8223,0.8227,0.8231,0.8281,0.8258,0.8306,0.8314,0.8283,0.8316,0.8317,0.8349,0.8353,0.8365,0.839,0.8393,0.8393,0.8394,0.8395,0.8396,0,0,0,0,0,0,0,0.815,0.8157,0.8222,0.8224,0.8229,0.8241,0.8249,0.8267,0.8311,0.8286,0.829,0.8298,0.8351,0.8363,0.8367,0.8394,0.8393,0.8395,0.8396,0.8397,0.8424,0.8423,0,0,0,0,0,0,0.8141,0.8153,0.822,0.8224,0.8193,0.8242,0.8251,0.8264,0.8311,0.8319,0.8297,0.83,0.8359,0.8364,0.8369,0.8374,0.8395,0.8397,0.8398,0.8424,0.8424,0.8423,0,0,0,0,0,0,0.8139,0.8146,0.8217,0.819,0.82,0.8243,0.8258,0.8265,0.8277,0.832,0.8328,0.8301,0.836,0.8366,0.8383,0.8376,0.8398,0.84,0.8425,0.8424,0.8424,0.8381,0,0,0,0,0,0,0.8136,0.8145,0.8146,0.8189,0.8201,0.8229,0.8257,0.8266,0.8281,0.8285,0.8325,0.8333,0.8361,0.8379,0.8385,0.838,0.8402,0.8426,0.8425,0.8424,0.8383,0.8379,0.8375,0,0,0,0,0,0.8133,0.813,0.8146,0.8153,0.8203,0.8228,0.8235,0.8268,0.828,0.8281,0.8309,0.8331,0.8377,0.838,0.8387,0.8383,0.8426,0.8425,0.8424,0.8385,0.838,0.8375,0,0,0,0,0,0,0.8083,0.8136,0.8154,0.8166,0.8192,0.8237,0.8239,0.8261,0.8284,0.8286,0.8326,0.8334,0.8347,0.8367,0.837,0.8386,0.8404,0.8404,0.8372,0.8368,0.8364,0.8358,0.8403,0,0,0,0,0,0.8074,0.8091,0.8136,0.8142,0.8155,0.8194,0.8207,0.823,0.8259,0.827,0.8299,0.8325,0.8346,0.8358,0.8379,0.8387,0.8397,0.8387,0.8383,0.838,0.8379,0.8386,0.8382,0.8419,0.8419,0.8419,0,0,0.8054,0.8085,0.8093,0.8133,0.8156,0.8173,0.8203,0.8219,0.8232,0.8272,0.829,0.8312,0.8344,0.8356,0.8363,0.8373,0.8372,0.8378,0.8375,0.8376,0.8384,0.8381,0.8377,0.8418,0.8419,0.8419,0,0,0.8026,0.8052,0.806,0.8084,0.8119,0.8146,0.8148,0.819,0.8207,0.8225,0.8256,0.8272,0.8306,0.8328,0.8344,0.8328,0.8349,0.8334,0.8312,0.8318,0.8315,0.8313,0.8307,0.8305,0.8333,0.8333,0.8333,0,0.7997,0.8023,0.8061,0.8076,0.8093,0.8132,0.8141,0.8161,0.8202,0.8212,0.8224,0.8269,0.8293,0.8311,0.8308,0.8319,0.8323,0.8328,0.8313,0.8311,0.8309,0.8304,0.8302,0.8331,0.8331,0.8331,0.8331,0,0.7986,0.8004,0.8006,0.8046,0.8063,0.8075,0.8114,0.8127,0.815,0.8175,0.8194,0.8226,0.8254,0.8261,0.8282,0.8283,0.8288,0.8306,0.8324,0.8303,0.8299,0.8297,0.8327,0.8328,0.8329,0.8329,0,0,0.7926,0.7988,0.7988,0.8008,0.8051,0.8066,0.808,0.8109,0.812,0.8147,0.816,0.8189,0.8207,0.8224,0.8249,0.8255,0.8241,0.8272,0.8273,0.8265,0.8244,0.823,0.8227,0.8256,0.8256,0.8256,0.8241,0,0.7905,0.7932,0.7968,0.7983,0.8001,0.804,0.8052,0.808,0.8105,0.8124,0.8152,0.8172,0.8193,0.8205,0.8212,0.8241,0.8237,0.8242,0.8268,0.8268,0.8257,0.8225,0.8209,0.8193,0.824,0.8239,0.8239,0,0.7882,0.7909,0.7927,0.7971,0.798,0.799,0.8021,0.8039,0.8072,0.809,0.8111,0.8139,0.8156,0.8174,0.8198,0.8201,0.8214,0.823,0.823,0.8233,0.8251,0.8226,0.8189,0.8186,0.8237,0.8237,0.8238,0,0.7837,0.7878,0.7894,0.7909,0.7961,0.7967,0.7989,0.8023,0.8039,0.8066,0.8077,0.8106,0.8121,0.8142,0.8177,0.8187,0.8197,0.8218,0.8213,0.8212,0.8211,0.8211,0.8176,0.8221,0.8221,0.8221,0.8221,0,0.7809,0.7817,0.7874,0.7884,0.7896,0.7937,0.7947,0.7973,0.8003,0.8019,0.8055,0.8068,0.8114,0.8133,0.816,0.8176,0.8183,0.8198,0.8205,0.8194,0.8192,0.8202,0.8204,0.8221,0.8221,0.8221,0.8221,0,0.7758,0.7797,0.7817,0.7866,0.7878,0.7885,0.7926,0.7937,0.7966,0.7985,0.7992,0.8036,0.8061,0.8098,0.8133,0.8152,0.8164,0.8176,0.8152,0.8156,0.8149,0.8149,0.8118,0.8116,0.8163,0.8163,0.8162,0,0.7737,0.7745,0.7796,0.7809,0.783,0.7851,0.7869,0.791,0.7927,0.7967,0.7973,0.8001,0.8025,0.8063,0.8098,0.8126,0.8139,0.8126,0.8143,0.8132,0.8138,0.8137,0.8138,0.8121,0.8121,0.812,0.812,0,0.7695,0.7714,0.7738,0.7769,0.779,0.7816,0.7844,0.7853,0.7901,0.7917,0.7944,0.7963,0.8001,0.8028,0.8061,0.8084,0.8109,0.8115,0.8115,0.8103,0.8089,0.8097,0.8141,0.8115,0.8115,0.8115,0.8116,0.8116,0.7658,0.7668,0.7706,0.7731,0.7758,0.7783,0.7797,0.7828,0.7851,0.7885,0.7909,0.7934,0.797,0.8017,0.8039,0.8059,0.807,0.807,0.807,0.8069,0.8065,0.8087,0.8065,0.8066,0.8066,0.8066,0.8066,0,0.7618,0.7645,0.7668,0.7707,0.7728,0.7753,0.7786,0.7801,0.7823,0.7855,0.7879,0.791,0.7937,0.7976,0.8006,0.8015,0.8028,0.8022,0.8021,0.8026,0.8054,0.8051,0.8011,0.8011,0.8011,0.8011,0.8011,0.8011,0.7599,0.7617,0.7641,0.7673,0.77,0.7726,0.7742,0.7767,0.7792,0.7826,0.7849,0.7875,0.7909,0.7943,0.797,0.798,0.799,0.7979,0.7994,0.8019,0.8024,0.8028,0.8025,0.7981,0.7981,0.7964,0.7964,0.7964]},{"header":{"parameterUnit":"m.s-1","parameterCategory":1,"la1":30.2991,"la2":30.254,"lo1":-89.0895,"lo2":-89.0444,"dy":0.0017,"dx":0.0017,"nx":28,"ny":28,"refTime":"2024-03-19T09:00:00:Z","depth":0,"parameterNumber":3,"parameterNumberName":"V-component_of_WINDS"},"data":[0,0,0,0,0,0,0,0,0,0,0,0,0,0,0,0,0,0,0,0,0,0,0,0,0,0,0,0,0,0,0,0,0,0,0,0,0,0,0,0,0,0,0,0,0,0,0,0,0,0,0,0,0,0,0,0,0,0,-8.7428,-8.743,0,-8.7583,-8.7585,-8.7587,-8.7459,-8.7454,-8.7448,-8.7443,-8.7598,-8.7607,-8.7616,0,0,0,0,0,0,0,0,0,0,0,0,0,-8.7018,-8.7026,-8.7428,-8.743,-8.7432,-8.7583,-8.7585,-8.7587,-8.746,-8.7453,-8.7447,-8.7441,-8.7595,-8.7606,-8.7617,0,0,0,0,0,0,0,0,0,0,0,0,0,-8.7187,-8.7029,-8.7428,-8.7387,-8.7385,-8.7582,-8.7585,-8.7588,-8.7461,-8.7453,-8.7445,-8.7438,-8.7591,-8.7605,-8.7618,-8.7863,0,0,-8.766,-8.7666,0,0,0,0,0,0,0,0,-8.7178,-8.7202,-8.7391,-8.739,-8.7388,-8.7494,-8.7497,-8.768,-8.7463,-8.7432,-8.7443,-8.7434,-8.757,-8.7584,-8.7631,-8.7871,-8.7877,-8.7661,-8.7669,-8.7675,-8.7679,0,0,0,0,0,0,0,-8.7166,-8.7195,-8.7489,-8.7394,-8.7392,-8.7359,-8.7375,-8.7531,-8.7544,-8.7434,-8.7425,-8.7446,-8.7567,-8.7618,-8.7634,-8.7879,-8.7661,-8.7673,-8.7681,-8.7687,-8.8328,-8.8337,0,0,0,0,0,0,-8.7159,-8.7186,-8.7484,-8.7494,-8.7261,-8.7373,-8.739,-8.7468,-8.7542,-8.7545,-8.7452,-8.7439,-8.7599,-8.7618,-8.7639,-8.7932,-8.7675,-8.7688,-8.7696,-8.8319,-8.833,-8.834,0,0,0,0,0,0,-8.7151,-8.7187,-8.7478,-8.7338,-8.7372,-8.7389,-8.7477,-8.7475,-8.7526,-8.7556,-8.7557,-8.7503,-8.7593,-8.7619,-8.7809,-8.7935,-8.7694,-8.7707,-8.8309,-8.8323,-8.8335,-8.8519,0,0,0,0,0,0,-8.714,-8.7185,-8.7279,-8.7341,-8.738,-8.7648,-8.7485,-8.7484,-8.755,-8.7535,-8.7603,-8.7607,-8.7589,-8.7789,-8.7823,-8.7949,-8.7717,-8.8298,-8.8315,-8.8331,-8.8502,-8.8537,-8.8567,0,0,0,0,0,-8.7125,-8.7323,-8.7284,-8.7321,-8.7499,-8.7655,-8.7677,-8.7654,-8.7561,-8.7656,-8.7674,-8.7604,-8.7916,-8.781,-8.7846,-8.7979,-8.829,-8.831,-8.8329,-8.8487,-8.853,-8.8566,0,0,0,0,0,0,-8.7274,-8.7331,-8.7288,-8.7512,-8.758,-8.7633,-8.7752,-8.77,-8.7795,-8.7776,-8.7742,-8.7758,-8.7958,-8.7987,-8.7868,-8.822,-8.8087,-8.8116,-8.8195,-8.8236,-8.8268,-8.8257,-8.7729,0,0,0,0,0,-8.7334,-8.7457,-8.7499,-8.7693,-8.7729,-8.7735,-8.7802,-8.7779,-8.7847,-8.7874,-8.7907,-8.7975,-8.8088,-8.8163,-8.8268,-8.8504,-8.8518,-8.8614,-8.8646,-8.8673,-8.8698,-8.8826,-8.8869,-8.8405,-8.8405,-8.8405,0,0,-8.7457,-8.7503,-8.7582,-8.7724,-8.7773,-8.7902,-8.776,-8.7901,-8.7995,-8.7895,-8.8077,-8.8104,-8.8176,-8.8391,-8.8487,-8.8421,-8.8829,-8.8698,-8.8719,-8.873,-8.8851,-8.8895,-8.8934,-8.8419,-8.8416,-8.8414,0,0,-8.7747,-8.7794,-8.7961,-8.8014,-8.8092,-8.8095,-8.8135,-8.8197,-8.8211,-8.8393,-8.8321,-8.8431,-8.8627,-8.8682,-8.8736,-8.9048,-8.8988,-8.9083,-8.9254,-8.9379,-8.9416,-8.9448,-8.956,-8.9601,-8.9108,-8.9108,-8.9109,0,-8.789,-8.8081,-8.8053,-8.8201,-8.8265,-8.8182,-8.8351,-8.8403,-8.8511,-8.8557,-8.8481,-8.8726,-8.8769,-8.8995,-8.9072,-8.9118,-8.9162,-8.9076,-8.9413,-8.9445,-8.9475,-8.9581,-8.9624,-8.912,-8.9118,-8.9117,-8.9116,0,-8.8254,-8.8387,-8.8513,-8.8621,-8.8699,-8.8857,-8.8852,-8.8934,-8.8904,-8.8914,-8.91,-8.9149,-8.9264,-8.9315,-8.9286,-8.9539,-8.9496,-8.9418,-8.9284,-8.9531,-8.9631,-8.9671,-8.9136,-8.9132,-8.9128,-8.9125,0,0,-8.8643,-8.8734,-8.8781,-8.883,-8.8909,-8.9012,-8.9165,-8.9278,-8.935,-8.9427,-8.9554,-8.9722,-8.965,-8.9712,-8.9688,-8.9797,-9.0043,-8.9705,-8.9707,-8.9768,-9.0325,-9.0384,-9.0432,-9.0002,-9.001,-9.0016,-9.0319,0,-8.8938,-8.9206,-8.9186,-8.9439,-8.9562,-8.9485,-8.9618,-8.9681,-8.9695,-8.98,-8.9814,-8.9934,-8.983,-8.9867,-8.9972,-8.9991,-9.0154,-8.9968,-9.0121,-9.0126,-9.0107,-9.0484,-9.0547,-9.0831,-9.0358,-9.0364,-9.0369,0,-8.9318,-8.941,-8.9677,-8.9739,-8.9789,-8.991,-9.0013,-9.0115,-9.0184,-9.0186,-9.0256,-9.0214,-9.0367,-9.0229,-9.044,-9.0314,-9.0374,-9.0393,-9.0403,-9.0418,-9.0264,-9.051,-9.092,-9.0964,-9.043,-9.0425,-9.0421,0,-8.9577,-8.9767,-8.9951,-8.9995,-9.0072,-9.0159,-9.0194,-9.0256,-9.0326,-9.0415,-9.046,-9.0565,-9.0623,-9.0705,-9.0692,-9.0592,-9.0907,-9.0768,-9.0913,-9.0914,-9.0984,-9.098,-9.1412,-9.1021,-9.1021,-9.102,-9.1019,0,-8.9909,-9.0075,-9.0069,-9.0183,-9.0367,-9.0341,-9.0523,-9.0548,-9.0604,-9.072,-9.0658,-9.0768,-9.0744,-9.0853,-9.0844,-9.102,-9.1046,-9.1052,-9.1048,-9.1059,-9.1059,-9.1099,-9.108,-9.1031,-9.1029,-9.1027,-9.1025,0,-9.023,-9.0233,-9.0429,-9.0486,-9.0504,-9.0637,-9.0685,-9.0792,-9.08,-9.0948,-9.0981,-9.0995,-9.112,-9.1115,-9.1257,-9.125,-9.1468,-9.144,-9.1446,-9.1441,-9.1587,-9.1574,-9.2061,-9.2124,-9.1692,-9.1696,-9.1699,0,-9.0443,-9.0569,-9.0641,-9.0715,-9.0757,-9.0877,-9.0949,-9.0927,-9.1004,-9.1093,-9.119,-9.131,-9.1405,-9.1609,-9.163,-9.1738,-9.1713,-9.1877,-9.1729,-9.1737,-9.1718,-9.1711,-9.1724,-9.1906,-9.1911,-9.1915,-9.1918,0,-9.0821,-9.0816,-9.0922,-9.1031,-9.1118,-9.1201,-9.1277,-9.1341,-9.1328,-9.1417,-9.1546,-9.162,-9.1766,-9.1886,-9.199,-9.2024,-9.197,-9.1964,-9.2004,-9.2017,-9.2016,-9.202,-9.1527,-9.1953,-9.195,-9.1947,-9.1945,-9.1944,-9.1095,-9.1205,-9.1272,-9.1393,-9.1448,-9.1521,-9.1625,-9.1647,-9.1755,-9.1873,-9.1853,-9.1998,-9.2063,-9.2197,-9.2242,-9.2353,-9.2295,-9.2352,-9.2367,-9.2382,-9.24,-9.1997,-9.2372,-9.2371,-9.237,-9.2369,-9.2368,0,-9.1471,-9.1511,-9.1623,-9.1732,-9.1827,-9.1768,-9.185,-9.1933,-9.2062,-9.2128,-9.2224,-9.2372,-9.2488,-9.2519,-9.2631,-9.2714,-9.2692,-9.2744,-9.2739,-9.2748,-9.2444,-9.24,-9.276,-9.276,-9.276,-9.276,-9.276,-9.276,-9.1678,-9.1861,-9.1864,-9.2073,-9.2111,-9.2254,-9.2305,-9.2372,-9.2425,-9.2594,-9.2691,-9.2711,-9.2763,-9.2878,-9.2982,-9.2988,-9.3033,-9.3096,-9.3092,-9.2808,-9.2769,-9.2731,-9.2689,-9.3105,-9.3106,-9.3386,-9.3388,-9.339]}]]